Overview Statistics Trail Chart Weather Telemetry Raw packets
 

This is the latest recevied weather packets stored in our database for station/object DL4SAV. If no packets are shown the sender has not sent any weather packets the latest 10 day(s).

<< 92 93 94 95 96 97 98 >>
Time Temp. Humidity Pressure Rain* Wind** Luminosity Snow
1787920684 18.89° C 84% 1015 hPa 0 mm - - -
1787920384 18.89° C 84% 1015.5 hPa 0 mm - - -
1787920084 18.89° C 83% 1015.3 hPa 0 mm - - -
1787919783 19.44° C 83% 1015.2 hPa 0 mm - - -
1787919483 19.44° C 81% 1014.9 hPa 0 mm - - -
1787919183 20° C 80% 1014.9 hPa 0 mm - - -
1787918883 20.56° C 80% 1014.5 hPa 0 mm - - -
1787918582 20.56° C 79% 1014.5 hPa 0 mm - - -
1787918282 21.11° C 79% 1014.5 hPa 0 mm - - -
1787917982 21.67° C 79% 1014.3 hPa 0 mm - - -
1787917681 21.67° C 79% 1014.3 hPa 0 mm - - -
1787917381 21.67° C 80% 1013.9 hPa 0 mm - - -
1787917081 21.67° C 81% 1013.6 hPa 0 mm - - -
1787916781 21.67° C 81% 1013.5 hPa 0 mm - - -
1787916480 21.67° C 81% 1013.7 hPa 0 mm - - -
1787916180 21.11° C 80% 1014 hPa 0 mm - - -
1787915880 21.11° C 78% 1013.8 hPa 0 mm - - -
1787915579 21.67° C 77% 1013.7 hPa 0 mm - - -
1787915279 22.22° C 79% 1013.5 hPa 0 mm - - -
1787914979 22.22° C 80% 1013.1 hPa 0 mm - - -
1787914679 21.67° C 81% 1013.2 hPa 0 mm - - -
1787914378 21.67° C 83% 1013.2 hPa 0 mm - - -
1787914078 21.11° C 84% 1012.9 hPa 0 mm - - -
1787913778 20.56° C 85% 1012.9 hPa 0 mm - - -
1787913477 20° C 85% 1013.2 hPa 0.51 mm - - -

* Rain latest hour (hover to see other rain measurements)
** Current wind speed in m/s (hover to see current wind gust speed)